Weather History for Springfield, IL

Change the Weather History Date:

Saturday, September 3, 2011

  Actual Average Record
Temperature  
Mean Temperature 85 °F 72 °F  
Max Temperature 100 °F 83 °F 100 °F (2011)
Min Temperature 70 °F 60 °F 40 °F (1952)
Degree Days  
Heating Degree Days 0 0  
Month to date heating degree days 0 0  
Since 1 July heating degree days 0 5  
Cooling Degree Days 20 7  
Month to date cooling degree days 69 21  
Year to date cooling degree days 1385 991  
Growing Degree Days 34 (Base 50)    
Moisture  
Dew Point 65 °F    
Average Humidity 59    
Maximum Humidity 90    
Minimum Humidity 28    
Precipitation  
Precipitation 0.06 in 0.10 in 3.71 in (1926)
Month to date precipitation 0.06 0.29  
Year to date precipitation 21.87 25.94  
Snow  
Snow 0.00 in 0.00 in 0.00 in ()
Month to date snowfall 0.0 0.0  
Since 1 July snowfall 0.0 0.0  
Since 1 September snowfall 0.0 0.0  
Snow Depth 0.00 in    
Sea Level Pressure  
Sea Level Pressure 29.88 in    
Wind  
Wind Speed 7 mph (SW)    
Max Wind Speed 24 mph    
Max Gust Speed 31 mph    
Visibility 10 miles    
Events      
T = Trace of Precipitation, MM = Missing Value Source: NWS Daily Summary

Daily Weather History Graph

Daily Weather History Graph

Search for Another Location

Airport:

Trip Planner

Search our weather history database for the weather conditions in past years. The results will help you decide how hot, cold, wet, or windy it might be!

Date:

Astronomy

Sep. 03, 2011 Rise Set
Actual Time 6:28 AM CDT 7:27 PM CDT
Civil Twilight 6:00 AM CDT 7:54 PM CDT
Nautical Twilight 5:27 AM CDT 8:27 PM CDT
Astronomical Twilight 4:53 AM CDT 9:01 PM CDT
Moon 1:08 PM CDT (9/3) 10:52 PM CDT (9/3)
Length of Visible Light 13h 54m
Length of Day
12h 58m
Waxing Crescent, 39% of the Moon is Illuminated
Sep 3
Waxing Crescent
Sep 4
First Quarter
Sep 12
Full
Sep 20
Last Quarter
Sep 27
New

Hourly Weather History & Observations

Time (CDT) Temp. Heat Index Dew Point Humidity Pressure Visibility Wind Dir Wind Speed Gust Speed Precip Events Conditions
12:52 AM 84.0 °F 85.8 °F 64.9 °F 53% 29.89 in 10.0 mi SSW 11.5 mph 18.4 mph N/A   Clear
1:52 AM 82.9 °F 84.6 °F 64.9 °F 54% 29.88 in 10.0 mi SSW 10.4 mph - N/A   Clear
2:52 AM 80.1 °F 81.9 °F 64.9 °F 60% 29.89 in 10.0 mi SW 5.8 mph - N/A   Clear
3:52 AM 78.1 °F - 66.0 °F 66% 29.89 in 10.0 mi SSW 6.9 mph - N/A   Clear
4:52 AM 75.0 °F - 64.9 °F 71% 29.91 in 10.0 mi WSW 3.5 mph - N/A   Clear
5:52 AM 72.0 °F - 64.9 °F 78% 29.91 in 10.0 mi Calm Calm - N/A   Clear
6:52 AM 75.0 °F - 66.0 °F 73% 29.91 in 10.0 mi SW 4.6 mph - N/A   Clear
7:52 AM 80.1 °F 82.3 °F 66.9 °F 64% 29.92 in 10.0 mi SSW 5.8 mph - N/A   Clear
8:52 AM 84.0 °F 86.5 °F 66.9 °F 56% 29.91 in 10.0 mi SW 3.5 mph - N/A   Clear
9:52 AM 89.1 °F 93.7 °F 69.1 °F 52% 29.90 in 10.0 mi SSW 8.1 mph - N/A   Clear
10:52 AM 91.9 °F 95.4 °F 66.9 °F 44% 29.89 in 10.0 mi SW 9.2 mph 18.4 mph N/A   Clear
11:52 AM 93.0 °F 95.9 °F 66.0 °F 41% 29.88 in 10.0 mi WSW 5.8 mph - N/A   Clear
12:52 PM 95.0 °F 97.0 °F 64.0 °F 36% 29.86 in 10.0 mi SW 10.4 mph 19.6 mph N/A   Clear
1:52 PM 98.1 °F 99.1 °F 62.1 °F 30% 29.85 in 10.0 mi WSW 15.0 mph 21.9 mph N/A   Clear
2:52 PM 99.0 °F 99.5 °F 60.1 °F 28% 29.81 in 10.0 mi SW 10.4 mph 18.4 mph N/A   Clear
3:52 PM 98.1 °F 97.7 °F 59.0 °F 27% 29.80 in 10.0 mi SSW 8.1 mph 18.4 mph N/A   Clear
4:52 PM 97.0 °F 97.4 °F 61.0 °F 30% 29.80 in 10.0 mi SW 10.4 mph 16.1 mph N/A   Clear
5:52 PM 86.0 °F 87.3 °F 64.0 °F 48% 29.83 in 10.0 mi North 24.2 mph 29.9 mph N/A   Scattered Clouds
6:52 PM 78.1 °F - 64.0 °F 62% 29.88 in 10.0 mi NNE 6.9 mph 19.6 mph N/A   Partly Cloudy
7:52 PM 72.0 °F - 68.0 °F 87% 29.90 in 10.0 mi ENE 8.1 mph - 0.06 in   Mostly Cloudy
8:52 PM 71.6 °F - 66.2 °F 83% 29.92 in 10.0 mi NNE 9.2 mph - N/A   Mostly Cloudy
9:52 PM 70.0 °F - 66.0 °F 87% 29.92 in 10.0 mi ENE 3.5 mph - N/A   Clear
10:52 PM 71.1 °F - 66.0 °F 84% 29.92 in 10.0 mi Calm Calm - N/A   Mostly Cloudy
11:52 PM 70.0 °F - 66.9 °F 90% 29.90 in 10.0 mi NW 3.5 mph - 0.00 in   Partly Cloudy